Flag for U.S.A. Weather past 2 weeks in Charleston, West Virginia, U.S.A.

Now
56 °F

Fog.


Feels Like: 56 °F
Forecast: 54 / 74 °F
Wind: No wind

Location: Yeager Airport

Current Time: Sep 18, 2014 at 4:08:48 AM

Latest Report: Sep 18, 2014 at 3:54 AM


Visibility: 1 mi

Pressure: 29.97 "Hg

Humidity: 100%

Dew point: 56 °F

Location of CharlestonLocation

Historic Weather in Charleston — Graph

°F

Charleston temperature yesterday

Maximum temperature yesterday: 72 °F (at 4:54 PM)
Minimum temperature yesterday: 55 °F (at 2:54 AM)
Average temperature yesterday: 61 °F

Past Weeks' High & Low Weather Summary

 TemperatureHumidityPressure
High87 °F (Sep 4, 2:54 PM)100% (Sep 3, 2:54 AM)30.30 "Hg (Sep 3, 2:54 AM)
Low50 °F (Sep 14, 3:54 AM)20% (Sep 11, 7:54 PM)29.86 "Hg (Sep 11, 3:54 AM)
Average68 °F85%30.08 "Hg
* Reported Sep 3 2:54 AM — Sep 18 2:54 AM, Charleston, Weather by CustomWeather, © 2014

Note: Actual official high and low records may vary slightly from our data, if they occured in-between our weather recording intervals... More about our weather records

Advertising

Charleston weather history for previous 24 hours

 ConditionsComfort  
Time TempWeatherWind HumidityBarometerVisibility
2:54 AM
Sep 18
57 °FFog.3 mph100%29.97 "Hg1 mi
1:54 AM58 °FFog.No wind100%29.96 "Hg1 mi
12:54 AM59 °FFog.No wind100%29.96 "Hg5 mi
11:54 PM
Sep 17
60 °FFog.No wind96%29.97 "Hg6 mi
10:54 PM61 °FPassing clouds.No wind97%29.97 "Hg7 mi
9:54 PM63 °FOvercast.No wind93%29.97 "Hg8 mi
8:54 PM62 °FPassing clouds.No wind93%29.96 "Hg7 mi
7:54 PM64 °FPartly sunny.3 mph87%29.96 "Hg10 mi
6:54 PM67 °FPartly sunny.5 mph71%29.96 "Hg10 mi
5:54 PM70 °FPartly sunny.3 mph61%29.95 "Hg10 mi
4:54 PM72 °FBroken clouds.No wind61%29.95 "Hg10 mi
3:54 PM69 °FBroken clouds.3 mph66%29.97 "Hg10 mi
2:54 PM70 °FScattered clouds.5 mph64%29.98 "Hg10 mi
1:54 PM67 °FPartly sunny.3 mph71%29.99 "Hg10 mi
12:54 PM64 °FPartly sunny.3 mph78%30.00 "Hg10 mi
11:54 AM60 °FOvercast.7 mph86%30.02 "Hg10 mi
10:54 AM59 °FLow clouds.No wind90%30.04 "Hg8 mi
9:54 AM57 °FFog.3 mph96%30.05 "Hg2 mi
8:54 AM55 °FFog.3 mph100%30.05 "Hg1 mi
7:54 AM55 °FFog.No wind100%30.05 "Hg1 mi
6:54 AM55 °FFog.No wind100%30.05 "Hg0 mi
5:54 AM55 °FFog.No wind100%30.05 "Hg0 mi
4:54 AM55 °FFog.No wind100%30.04 "Hg0 mi
Weather by CustomWeather, © 2014

See weather overviewHow to use our weather pages